Regional Weather Roundup
Issued by NWS Newport/Morehead, NC

Current Version | Previous Version | Graphics & Text | Print | Product List | Glossary Off
Versions: 1 2 3 4 5 6 7 8 9 10 11 12 13 14 15 16 17 18 19 20 21 22 23 24 25 26 27 28 29 30 31 32 33 34 35 36 37 38 39 40 41 42 43 44 45 46 47 48 49 50

000
ASUS42 KMHX 151025
RWRMHX
WEATHER ROUNDUP FOR EASTERN NORTH CAROLINA
NATIONAL WEATHER SERVICE NEWPORT/MOREHEAD CITY NC
500 AM EST SUN JAN 15 2017

NOTE: "FAIR" INDICATES FEW OR NO CLOUDS BELOW 12,000 FEET
WITH NO SIGNIFICANT WEATHER AND/OR OBSTRUCTIONS TO VISIBILITY

NCZ015>017-031-032-045>047-102-103-151100-
NORTH COAST

CITY           SKY/WX    TMP DP  RH WIND       PRES   REMARKS
EDENTON        CLOUDY    46  45  93 CALM      30.30S FOG
ELIZABETH CITY CLOUDY    44  42  93 NE3       30.30S
KITTY HAWK     NOT AVBL
MANTEO         CLOUDY    43  43 100 N3        30.30S

$$

NCZ045>047-081-094-103-104-151100-
CENTRAL COAST

CITY           SKY/WX    TMP DP  RH WIND       PRES   REMARKS
FRISCO         CLOUDY    47  45  93 VRB3      30.29S FOG

$$

NCZ095-097-098-100-101-151100-
SOUTHERN COAST

CITY           SKY/WX    TMP DP  RH WIND       PRES   REMARKS
BEAUFORT       CLEAR     46  44  93 W3        30.28F
CEDAR ISLAND   NOT AVBL
JACKSONVILLE   PTCLDY    41  41 100 CALM      30.28F
PINEY ISLAND   CLOUDY   N/A N/A N/A SW3       30.28S HAZE
WILMINGTON     CLEAR     42  42 100 CALM      30.29S FOG


$$

NCZ011>013-027>030-043-044-078>080-089-090>093-098-151100-
COASTAL PLAIN

CITY           SKY/WX    TMP DP  RH WIND       PRES   REMARKS
AHOSKIE          N/A     43  42  95 CALM      30.30R
CLINTON        PTCLDY    42  42 100 CALM      30.29S
ELIZABETHTOWN  CLEAR     41  41  99 CALM      30.28S
GOLDSBORO      MOCLDY    44  44 100 CALM      30.25F
GREENVILLE     CLOUDY    46  43  87 CALM      30.29S
HAVELOCK       MOCLDY    42  40  92 CALM      30.29F
KENANSVILLE    MOCLDY    41  39  93 CALM      30.28S FOG
KINSTON        CLOUDY    45  42  92 SW3       30.28F
NEW BERN       CLOUDY    45  42  89 SW5       30.29S
RICHLANDS      MOCLDY    40  40 100 CALM      30.29S
ROCKY MOUNT    CLOUDY    43  42  97 CALM      30.29R
WASHINGTON       N/A     46  42  89 CALM      30.29R
WHITEVILLE     CLEAR     43  42  95 CALM      30.28S

$$

AMZ130-135-150-152-154-156-158-170-250-252-270-ANZ085-086-088-633-658-670-151100-
MARINE OBSERVATIONS

STATION/POSITION TIME  TEMP    WIND        PRES    WAVE   SWELL
                       AIR SEA DIR/SP/G            HT/PER HT/PER
                 (UTC) (F)     (DEG/KT/KT) (MB)    (FT/S) (FT/S)
CHESAPEAKE LIGHT NOT AVBL
64 E VA BEACH    0950   47 58  340/ 16/ 19 1024.7    4/ 4   2/11
DUCK             1000   43 47   10/  6/  8 1025.3
2 E DUCK         1000      47                N/A     3/12   2/12
OREGON INLET     1000   44 49  320/  5/  6 1025.8
13E OREGON INLT  NOT AVBL
HATTERAS CG      1000   46 54  340/  8/  9 1025.4
DIAMOND BUOY     0950   53 75  330/ 16/ 19 1025.2    4/10   3/10
CAPE LOOKOUT     1000   49     290/  5/  6 1025.0
BEAUFORT LAB     1000   46 49   CALM  /  1 1024.4
30 SE NEW RVR IN 1008   56 65  300/  6/ 12 1025.6
30 SE NEW RVR IN 1013      65                N/A     3/12   2/12
27 SE WRIGHTSVLE 1008   60 70  260/ 10/ 14 1025.3
5 SE WRIGHTSVLE  1008   51     330/  2/  6 1025.6
225 S CAPE HAT   0950   71 71  280/  8/ 10 1024.8    5/11   5/11
41 SE CHARLESTON 0950   63 71  290/  2/  4 1025.7    4/11   3/11

$$




USA.gov is the U.S. government's official web portal to all federal, state and local government web resources and services.